Flag for Angola Weather past 2 weeks in Huambo, Angola

Now
77 °F

Broken clouds.


Feels Like: 78 °F
Forecast: 55 / 75 °F
Wind: 5 mph from South

Location: Luanda Airport

Current Time: Dec 22, 2014 at 8:24:31 AM

Latest Report: Dec 22, 2014 at 7:00 AM


Visibility: N/A

Pressure: 29.95 "Hg

Humidity: 83%

Dew point: 72 °F

Location of HuamboLocation

Historic Weather in Huambo — Graph

°F

Huambo temperature yesterday

Maximum temperature yesterday: 86 °F (at 1:00 PM)
Minimum temperature yesterday: 77 °F (at 12:00 AM)
Average temperature yesterday: 80 °F

Past Weeks' High & Low Weather Summary

 TemperatureHumidityPressure
High90 °F (Dec 20, 11:00 AM)100% (Dec 16, 6:00 AM)30.21 "Hg (Dec 16, 6:00 AM)
Low64 °F (Dec 16, 6:00 AM)31% (Dec 8, 11:00 AM)29.74 "Hg (Dec 12, 4:00 PM)
Average80 °F78%29.88 "Hg
* Reported Dec 7 7:00 AM — Dec 22 7:00 AM, Huambo, Weather by CustomWeather, © 2014

Note: Actual official high and low records may vary slightly from our data, if they occured in-between our weather recording intervals... More about our weather records

Advertising

Huambo weather history for previous 24 hours

 ConditionsComfort  
Time TempWeatherWind HumidityBarometerVisibility
7:00 AM
Dec 22
77 °FBroken clouds.5 mph83%29.95 "HgN/A
6:00 AM77 °FBroken clouds.5 mph83%29.92 "HgN/A
5:00 AM77 °FPassing clouds.5 mph79%29.92 "HgN/A
4:00 AM77 °FPassing clouds.5 mph83%29.89 "HgN/A
3:00 AM75 °FPassing clouds.5 mph89%29.89 "HgN/A
2:00 AM75 °FPassing clouds.5 mph89%29.89 "HgN/A
9:00 PM
Dec 21
77 °FPassing clouds.7 mph79%29.92 "HgN/A
8:00 PM79 °FPassing clouds.5 mph74%29.92 "HgN/A
7:00 PM79 °FPassing clouds.9 mph74%29.89 "HgN/A
6:00 PM81 °FScattered clouds.13 mph74%29.86 "HgN/A
5:00 PM82 °FScattered clouds.13 mph66%29.83 "HgN/A
4:00 PM86 °FScattered clouds.12 mph62%29.86 "HgN/A
3:00 PM86 °FScattered clouds.12 mph62%29.86 "HgN/A
2:00 PM86 °FScattered clouds.9 mph59%29.89 "HgN/A
1:00 PM86 °FScattered clouds.10 mph62%29.92 "HgN/A
12:00 PM84 °FPartly sunny.9 mph66%29.95 "HgN/A
11:00 AM84 °FPartly sunny.7 mph66%29.95 "HgN/A
10:00 AM82 °FPartly sunny.5 mph66%29.95 "HgN/A
9:00 AM82 °FBroken clouds.6 mph70%29.95 "HgN/A
8:00 AM79 °FBroken clouds.7 mph79%29.92 "HgN/A
Weather by CustomWeather, © 2014

See weather overviewHow to use our weather pages